Tracking 33679 objects as of 4-Apr-2026
HD Live streaming from Space Station
objects crossing your sky now
Track ARTEMIS 2 (INTEGRITY)

COSMOS 2535

Track COSMOS 2535 now!
10-day predictions


NORAD ID: 44421
Int'l Code: 2019-039A
Perigee: 592.5 km
Apogee: 606.4 km
Inclination: 97.6 °
Period: 96.5 minutes
Semi major axis: 6970 km
RCS: Unknown
Launch date: July 10, 2019
Source: Commonwealth of Independent States (former USSR) (CIS)
Launch site: PLESETSK MISSILE AND SPACE COMPLEX (PKMTR)
Your satellite tracking list
Your tracking list is empty




NASA's NSSDC Master Catalog

Two Line Element Set (TLE):
1 44421U 19039A   26093.96103359  .00002201  00000-0  22330-3 0  9991
2 44421  97.5849 124.9454 0009992  99.0634 261.1716 14.91810268365578
Source of the keplerian elements: AFSPC